GW0518 Weather Reports


Display with metric or nautical units.
time (UTC)temp
F
wind
direction
speed
MPH
gust
MPH
rain 1hr
in
rain 24hr
in
rain mn
in
humidity
%
barometer
mb
20260506191215 44 313 3.0 8.0 0.00 0.74 0.41 97 1009.5
20260506190716 44 302 3.0 8.0 0.00 0.74 0.41 97 1009.4
20260506190216 44 355 5.0 11.0 0.00 0.74 0.41 97 1009.3
20260506185716 44 5 5.0 11.0 0.00 0.74 0.41 97 1009.2
20260506185216 44 355 4.0 10.0 0.00 0.74 0.41 97 1009.1
20260506184716 44 350 4.0 9.0 0.00 0.74 0.41 97 1009.1
20260506184216 44 341 4.0 10.0 0.00 0.74 0.41 97 1009.2
20260506183937 44 309 4.0 11.0 0.00 0.74 0.41 97 1009.3
20260506183215 44 5 5.0 11.0 0.00 0.74 0.41 97 1009.3
20260506182716 44 341 4.0 10.0 0.00 0.74 0.41 97 1009.2
20260506182431 44 28 4.0 11.0 0.00 0.74 0.41 97 1009.1
20260506181716 44 355 4.0 11.0 0.00 0.74 0.41 97 1009.1
20260506181215 44 323 5.0 10.0 0.00 0.75 0.41 97 1009.0
20260506180715 44 355 5.0 10.0 0.00 0.76 0.41 97 1008.9
20260506180215 45 355 4.0 10.0 0.00 0.80 0.41 97 1008.9
20260506175716 45 320 4.0 9.0 0.00 0.81 0.41 97 1008.7
20260506175216 45 355 4.0 9.0 0.00 0.83 0.41 97 1008.7
20260506174940 45 350 5.0 10.0 0.00 0.91 0.41 97 1008.5
20260506174216 45 13 5.0 10.0 0.00 0.91 0.41 97 1008.5
20260506173715 45 348 3.0 9.0 0.00 0.92 0.41 97 1008.4
20260506173216 46 324 3.0 8.0 0.00 0.94 0.41 97 1008.4
20260506172215 46 296 3.0 5.0 0.00 0.94 0.41 97 1008.3
20260506171715 45 319 3.0 6.0 0.01 0.94 0.41 97 1008.2
20260506171216 46 319 3.0 8.0 0.01 0.94 0.41 97 1008.4
20260506170715 46 317 2.0 8.0 0.01 0.95 0.41 97 1008.4
20260506170215 45 327 2.0 4.0 0.01 1.05 0.41 97 1008.2
20260506165715 45 330 2.0 5.0 0.01 1.05 0.41 97 1008.3
20260506165216 45 329 3.0 6.0 0.01 1.05 0.41 97 1008.2
20260506164940 45 333 3.0 6.0 0.01 1.05 0.41 97 1008.1
20260506164215 45 0 3.0 7.0 0.02 1.05 0.41 97 1008.2
20260506163716 45 5 3.0 7.0 0.02 1.05 0.41 97 1008.1
20260506163215 45 14 4.0 9.0 0.02 1.05 0.41 97 1008.3
20260506162715 45 12 4.0 9.0 0.02 1.05 0.41 97 1008.2
20260506162216 45 355 4.0 8.0 0.02 1.05 0.41 97 1008.3
20260506161715 45 320 3.0 8.0 0.01 1.04 0.40 97 1008.4
20260506161216 45 5 3.0 8.0 0.01 1.04 0.40 97 1008.3
20260506160715 45 5 3.0 8.0 0.01 1.04 0.40 97 1008.2
20260506160216 44 0 3.0 8.0 0.01 1.04 0.40 97 1008.4
20260506155715 44 5 2.0 5.0 0.01 1.04 0.40 97 1008.6
20260506155216 44 5 3.0 6.0 0.01 1.04 0.40 97 1008.6
20260506154716 44 348 4.0 10.0 0.01 1.04 0.40 97 1008.6
20260506154215 44 5 4.0 10.0 0.00 1.03 0.39 97 1008.6
20260506153715 44 355 4.0 9.0 0.00 1.03 0.39 97 1008.6
20260506153215 44 355 4.0 9.0 0.01 1.03 0.39 97 1008.7
20260506152716 44 9 4.0 8.0 0.01 1.03 0.39 97 1008.6
20260506152215 44 5 4.0 8.0 0.01 1.03 0.39 97 1008.5
20260506151715 44 5 4.0 8.0 0.01 1.03 0.39 97 1008.4
20260506151215 44 5 4.0 8.0 0.01 1.03 0.39 97 1008.5
20260506150715 44 5 4.0 8.0 0.02 1.03 0.39 97 1008.4
20260506145715 44 22 4.0 7.0 0.02 1.03 0.39 97 1008.1
20260506145215 44 15 3.0 7.0 0.03 1.03 0.39 97 1008.3
20260506144715 44 76 2.0 5.0 0.03 1.03 0.39 97 1008.1
20260506144216 44 76 3.0 5.0 0.03 1.03 0.39 97 1007.9
20260506143939 44 76 3.0 5.0 0.03 1.03 0.39 97 1007.9
20260506143215 44 76 3.0 7.0 0.03 1.02 0.38 97 1007.9
20260506142715 44 122 3.0 7.0 0.03 1.02 0.38 97 1007.7
20260506142215 44 59 3.0 6.0 0.03 1.02 0.38 97 1007.9
20260506141716 44 59 3.0 6.0 0.04 1.02 0.38 97 1007.9
20260506141215 44 60 3.0 8.0 0.04 1.02 0.38 97 1007.9
20260506140715 44 59 3.0 8.0 0.04 1.01 0.37 97 1008.0
20260506140215 43 80 3.0 7.0 0.04 1.01 0.37 97 1007.8
20260506135715 43 86 3.0 8.0 0.05 1.01 0.36 96 1007.9
20260506135215 43 87 4.0 8.0 0.05 1.00 0.36 96 1007.9
20260506134715 43 60 4.0 7.0 0.05 1.00 0.36 96 1008.0
20260506134215 43 60 4.0 7.0 0.06 1.00 0.36 96 1007.9
20260506133716 43 49 3.0 7.0 0.07 1.00 0.36 96 1008.0
20260506133215 43 74 4.0 8.0 0.07 0.99 0.35 96 1008.1
20260506132715 43 55 4.0 9.0 0.08 0.99 0.35 96 1008.1
20260506132214 43 51 4.0 9.0 0.09 0.99 0.35 96 1008.2
20260506131939 43 39 3.0 9.0 0.08 0.98 0.34 96 1008.3
20260506131215 43 17 3.0 9.0 0.09 0.98 0.34 96 1008.2
20260506130936 43 57 4.0 9.0 0.08 0.97 0.33 96 1008.1
20260506130215 43 64 4.0 9.0 0.09 0.97 0.33 96 1008.2
20260506125716 43 55 4.0 9.0 0.09 0.96 0.32 96 1008.1
20260506125215 43 40 4.0 9.0 0.08 0.95 0.31 96 1008.2
20260506124715 43 26 3.0 6.0 0.08 0.95 0.30 96 1008.4
20260506124216 43 58 3.0 6.0 0.07 0.94 0.30 96 1008.2
20260506123715 43 55 4.0 11.0 0.06 0.93 0.29 96 1008.0
20260506123436 43 54 5.0 11.0 0.06 0.92 0.28 96 1008.0
20260506122715 43 56 4.0 9.0 0.05 0.91 0.27 96 1008.1
20260506122215 43 52 4.0 9.0 0.04 0.90 0.26 96 1008.0
20260506121715 43 68 5.0 10.0 0.05 0.90 0.26 96 1007.8
20260506121215 43 56 5.0 11.0 0.04 0.89 0.25 96 1008.0
20260506120715 43 57 5.0 11.0 0.04 0.89 0.24 96 1008.0
20260506120216 43 62 5.0 12.0 0.04 0.88 0.24 96 1007.8
20260506115932 43 54 5.0 12.0 0.03 0.87 0.23 96 1008.0
20260506115215 43 51 5.0 12.0 0.04 0.87 0.23 96 1007.7
20260506114716 43 96 5.0 11.0 0.05 0.87 0.23 96 1007.7
20260506114215 43 59 6.0 13.0 0.06 0.87 0.23 96 1007.9
20260506113715 43 63 6.0 13.0 0.06 0.87 0.23 96 1008.0
20260506113215 43 45 5.0 12.0 0.06 0.86 0.22 96 1008.2
20260506112715 43 57 5.0 11.0 0.06 0.86 0.22 96 1008.1
20260506112215 43 38 5.0 11.0 0.06 0.86 0.22 96 1008.0
20260506111715 43 56 5.0 11.0 0.06 0.85 0.21 96 1008.2
20260506111215 43 57 5.0 11.0 0.06 0.85 0.21 96 1008.5
20260506110715 43 68 5.0 12.0 0.06 0.85 0.21 96 1008.3
20260506110215 43 54 6.0 12.0 0.05 0.84 0.20 96 1008.4
20260506105715 43 63 6.0 11.0 0.06 0.84 0.19 96 1008.5
20260506105215 43 47 5.0 11.0 0.05 0.83 0.19 96 1008.6
20260506104715 43 42 4.0 11.0 0.04 0.82 0.18 96 1008.5
20260506104216 44 53 4.0 9.0 0.03 0.81 0.17 96 1008.3
20260506103713 44 57 4.0 8.0 0.04 0.81 0.17 96 1008.3
20260506102712 44 41 5.0 11.0 0.05 0.80 0.16 96 1008.0
20260506102213 44 51 4.0 10.0 0.05 0.80 0.16 96 1007.9
20260506101713 43 86 4.0 9.0 0.05 0.79 0.15 96 1007.8
20260506100213 43 75 4.0 11.0 0.05 0.79 0.14 96 1007.9
20260506095936 43 59 5.0 11.0 0.05 0.78 0.14 96 1007.8
20260506095432 43 109 4.0 11.0 0.05 0.78 0.14 96 1007.7
20260506094712 43 69 4.0 10.0 0.06 0.78 0.14 96 1007.7
20260506094213 44 75 5.0 10.0 0.07 0.78 0.14 96 1007.8
20260506093713 44 130 6.0 12.0 0.06 0.77 0.13 96 1007.8
20260506093212 44 69 5.0 12.0 0.06 0.76 0.12 96 1008.0
20260506092933 44 73 5.0 12.0 0.05 0.75 0.11 96 1008.1
20260506092213 44 72 5.0 12.0 0.06 0.75 0.10 96 1008.2
20260506091714 44 50 5.0 12.0 0.05 0.74 0.10 96 1008.2
20260506091213 44 78 6.0 12.0 0.06 0.74 0.10 96 1008.3
20260506090713 44 47 5.0 11.0 0.06 0.74 0.10 96 1008.6
20260506090447 43 57 6.0 12.0 0.06 0.74 0.10 96 1008.7
20260506085933 44 61 6.0 12.0 0.06 0.73 0.09 96 1008.7
20260506085430 44 80 6.0 12.0 0.07 0.73 0.08 96 1008.9
20260506084712 44 5 6.0 13.0 0.07 0.72 0.08 96 1009.1
20260506084213 44 42 5.0 13.0 0.06 0.71 0.07 96 1008.8
20260506083712 45 52 6.0 12.0 0.06 0.71 0.07 96 1008.9
20260506083437 45 23 7.0 14.0 0.05 0.70 0.06 96 1008.7
20260506082713 46 44 7.0 14.0 0.05 0.70 0.06 96 1008.7
20260506082213 46 39 7.0 15.0 0.04 0.69 0.05 96 1008.8
20260506081712 47 76 7.0 15.0 0.04 0.69 0.05 96 1008.7
20260506081213 47 55 7.0 14.0 0.03 0.68 0.04 96 1008.3
20260506080936 47 45 6.0 14.0 0.03 0.68 0.04 96 1008.3
20260506080213 47 49 5.0 10.0 0.03 0.68 0.04 96 1008.6
20260506073213 47 61 3.0 9.0 0.00 0.72 0.01 96 1008.3
20260506072943 48 74 2.0 5.0 0.00 0.72 0.01 96 1008.4
20260506072213 48 75 3.0 7.0 0.01 0.72 0.01 96 1008.4
20260506071714 48 75 3.0 7.0 0.01 0.72 0.01 96 1008.2
20260506071212 48 76 3.0 8.0 0.01 0.72 0.01 96 1008.0
20260506070712 48 77 3.0 8.0 0.01 0.72 0.01 96 1007.9
20260506070213 48 115 2.0 7.0 0.01 0.72 0.01 96 1008.1
20260506062212 48 119 3.0 9.0 0.00 0.71 0.00 96 1008.3
20260506061712 48 111 2.0 4.0 0.00 0.71 0.00 96 1009.4
20260506061213 48 111 2.0 6.0 0.00 0.71 0.00 96 1008.9
20260506060713 48 111 1.0 6.0 0.00 0.71 0.00 96 1009.2
20260506060438 48 111 2.0 3.0 0.00 0.71 0.00 96 1008.8
20260506051212 48 108 1.0 3.0 0.00 0.72 0.00 96 1010.0
20260506050712 48 108 1.0 4.0 0.00 0.72 0.00 95 1010.1
20260506050213 48 108 1.0 4.0 0.00 0.72 0.00 96 1009.7
20260506044712 48 98 1.0 4.0 0.00 0.72 0.00 95 1009.8
20260506044433 48 98 1.0 2.0 0.00 0.72 0.00 95 1009.9
20260506043713 47 98 1.0 3.0 0.00 0.72 0.00 95 1010.3
20260506043212 47 98 2.0 4.0 0.00 0.72 0.00 95 1010.2
20260506042712 47 98 2.0 4.0 0.01 0.72 0.00 95 1009.8
20260506042212 47 98 1.0 3.0 0.03 0.72 0.00 95 1010.2
20260506041712 47 98 1.0 3.0 0.05 0.72 0.00 95 1010.0
20260506041212 47 98 2.0 4.0 0.07 0.72 0.00 95 1009.9
20260506040713 47 98 2.0 4.0 0.08 0.72 0.00 95 1010.1
20260506040318 47 71 1.0 4.0 0.09 0.72 0.00 95 1009.9
20260506035713 47 71 1.0 4.0 0.09 0.72 0.72 95 1009.9
20260506035212 47 60 1.0 3.0 0.10 0.72 0.72 95 1010.0
20260506034712 47 60 2.0 3.0 0.10 0.72 0.72 95 1009.9
20260506034212 47 59 2.0 3.0 0.11 0.72 0.72 95 1009.9
20260506033712 47 59 1.0 4.0 0.13 0.72 0.72 95 1010.0
20260506033212 47 58 1.0 4.0 0.14 0.72 0.72 95 1010.0
20260506032712 47 58 1.0 3.0 0.13 0.71 0.71 94 1010.2
20260506032212 47 58 0.0 2.0 0.12 0.69 0.68 94 1010.6
20260506031712 47 58 1.0 2.0 0.10 0.67 0.67 94 1010.4
20260506031212 47 58 1.0 4.0 0.08 0.65 0.65 94 1010.3
20260506030712 47 58 2.0 4.0 0.07 0.64 0.64 94 1010.0
20260506030212 47 57 2.0 4.0 0.07 0.63 0.63 94 1010.0
20260506025712 47 57 3.0 4.0 0.07 0.63 0.63 94 1010.1
20260506025211 47 58 3.0 5.0 0.07 0.62 0.62 94 1010.4
20260506024712 47 59 3.0 5.0 0.07 0.62 0.61 94 1010.7
20260506024212 47 59 2.0 5.0 0.07 0.61 0.60 94 1010.4
20260506023712 47 59 2.0 4.0 0.05 0.59 0.58 94 1010.5
20260506023212 47 59 2.0 4.0 0.05 0.58 0.58 94 1010.8
20260506022712 47 59 1.0 4.0 0.06 0.58 0.58 93 1010.7
20260506022212 47 59 1.0 4.0 0.06 0.57 0.57 93 1010.7
20260506021712 47 59 2.0 4.0 0.06 0.57 0.57 93 1010.7
20260506021212 47 59 2.0 4.0 0.06 0.57 0.57 93 1010.7
20260506020712 47 59 2.0 5.0 0.07 0.57 0.56 93 1010.7
20260506020212 47 59 2.0 5.0 0.06 0.56 0.56 93 1010.8
20260506015712 47 61 1.0 4.0 0.06 0.56 0.56 93 1010.7
20260506015212 47 61 1.0 3.0 0.05 0.55 0.55 92 1010.8
20260506014712 47 61 2.0 8.0 0.06 0.55 0.55 92 1010.6
20260506014211 47 61 3.0 8.0 0.05 0.54 0.54 92 1010.6
20260506013712 47 62 3.0 9.0 0.05 0.54 0.54 92 1010.0
20260506013212 47 73 3.0 9.0 0.04 0.53 0.53 91 1010.1
20260506012713 48 28 3.0 6.0 0.03 0.52 0.52 91 1010.4
20260506012211 48 23 3.0 6.0 0.03 0.51 0.51 91 1010.4
20260506011711 48 22 3.0 6.0 0.03 0.51 0.51 91 1010.3
20260506011448 48 22 3.0 6.0 0.03 0.51 0.51 90 1010.3
20260506010712 48 22 3.0 7.0 0.03 0.50 0.50 90 1010.4
20260506010213 48 22 3.0 7.0 0.05 0.50 0.50 89 1010.4
20260506005712 48 17 3.0 7.0 0.05 0.50 0.50 89 1010.3
20260506005211 48 15 4.0 10.0 0.05 0.50 0.50 88 1009.9
20260506004712 49 0 4.0 10.0 0.04 0.49 0.49 87 1009.9
20260506004211 49 29 4.0 9.0 0.04 0.49 0.49 87 1010.0
20260506003712 49 16 6.0 11.0 0.04 0.49 0.49 85 1009.9
20260506003212 49 41 6.0 12.0 0.04 0.49 0.49 84 1009.9
20260506002712 50 22 6.0 12.0 0.04 0.49 0.49 83 1009.8
20260506002211 51 22 5.0 11.0 0.03 0.48 0.48 81 1009.7
20260506001713 52 9 5.0 11.0 0.03 0.48 0.48 80 1009.8
20260506000711 54 10 5.0 11.0 0.02 0.47 0.47 75 1009.7
20260506000212 55 12 5.0 12.0 0.00 0.45 0.45 73 1010.0
20260505235712 55 345 5.0 12.0 0.00 0.45 0.45 72 1009.5
20260505235212 55 19 5.0 13.0 0.00 0.45 0.45 72 1009.2
20260505234712 56 22 5.0 13.0 0.00 0.45 0.45 72 1009.1
20260505234211 56 0 5.0 11.0 0.00 0.45 0.45 72 1009.0
20260505233212 57 328 6.0 19.0 0.00 0.45 0.45 73 1009.0
20260505232712 57 348 8.0 19.0 0.00 0.45 0.45 72 1008.8
20260505232211 58 0 7.0 16.0 0.00 0.45 0.45 72 1008.6
20260505231940 58 312 7.0 15.0 0.00 0.45 0.45 72 1008.6
20260505231429 59 350 7.0 14.0 0.00 0.45 0.45 72 1008.4
20260505230713 59 328 7.0 14.0 0.00 0.45 0.45 71 1008.3
20260505225711 60 0 8.0 17.0 0.00 0.45 0.45 70 1007.8
20260505225212 61 303 8.0 17.0 0.00 0.45 0.45 72 1007.6
20260505224712 62 355 7.0 13.0 0.00 0.45 0.45 74 1007.6
20260505224212 62 25 5.0 13.0 0.00 0.45 0.45 75 1007.3
20260505223713 63 36 5.0 10.0 0.00 0.45 0.45 76 1007.2
20260505223212 63 5 6.0 11.0 0.00 0.45 0.45 75 1007.1
20260505222434 64 5 5.0 11.0 0.00 0.45 0.45 76 1006.9
20260505221936 64 23 4.0 8.0 0.00 0.45 0.45 77 1006.7
20260505221212 65 355 4.0 9.0 0.00 0.45 0.45 76 1006.7
20260505220711 65 9 5.0 10.0 0.00 0.45 0.45 76 1006.6
20260505220211 65 355 6.0 11.0 0.00 0.45 0.45 75 1006.4
20260505215712 66 334 5.0 11.0 0.00 0.45 0.45 76 1006.3
20260505215212 66 32 2.0 11.0 0.01 0.45 0.45 81 1006.3
20260505214713 67 267 2.0 9.0 0.01 0.45 0.45 83 1006.1
20260505214212 67 255 2.0 9.0 0.03 0.45 0.45 84 1006.2
20260505213712 67 228 2.0 5.0 0.03 0.45 0.45 87 1006.0
20260505213433 66 227 2.0 5.0 0.03 0.45 0.45 87 1006.0
20260505212935 66 228 2.0 5.0 0.03 0.45 0.45 87 1006.0
20260505212211 66 223 2.0 4.0 0.03 0.45 0.45 88 1006.0
20260505211711 66 222 2.0 4.0 0.03 0.45 0.45 87 1005.9
20260505211213 66 221 2.0 4.0 0.06 0.45 0.45 87 1005.9
20260505210933 65 221 2.0 4.0 0.06 0.45 0.45 86 1005.9
20260505210434 65 234 2.0 5.0 0.06 0.45 0.45 85 1005.9
20260505205712 65 234 2.0 5.0 0.06 0.45 0.45 84 1005.9
20260505205211 66 193 1.0 4.0 0.05 0.44 0.44 82 1006.0
20260505204712 66 193 1.0 4.0 0.05 0.44 0.43 81 1006.1
20260505204211 67 193 2.0 7.0 0.03 0.42 0.42 79 1005.9
20260505203711 67 190 3.0 9.0 0.03 0.42 0.42 78 1005.7
20260505203431 68 182 3.0 9.0 0.03 0.42 0.42 78 1005.8
20260505202712 68 225 2.0 6.0 0.03 0.42 0.42 78 1005.7
20260505202211 69 262 2.0 6.0 0.03 0.42 0.42 76 1005.5
20260505201930 70 249 2.0 4.0 0.03 0.42 0.42 73 1005.5
20260505201211 71 296 1.0 4.0 0.00 0.39 0.39 71 1005.4
20260505200712 71 298 2.0 9.0 0.00 0.39 0.39 68 1005.4
20260505200212 71 298 3.0 9.0 0.00 0.39 0.39 68 1005.4
20260505195711 71 294 4.0 9.0 0.00 0.39 0.39 68 1005.4
20260505195212 71 270 4.0 8.0 0.00 0.39 0.39 69 1005.4
20260505194714 71 232 4.0 12.0 0.00 0.39 0.39 69 1005.4
20260505194435 71 305 5.0 12.0 0.00 0.39 0.39 69 1005.5
20260505193713 70 244 4.0 12.0 0.00 0.39 0.39 72 1005.6
20260505193212 69 292 5.0 12.0 0.00 0.39 0.39 73 1005.5
20260505192712 69 219 4.0 12.0 0.00 0.39 0.39 73 1005.5
20260505192213 69 246 3.0 8.0 0.00 0.39 0.39 77 1005.6
20260505191711 68 229 4.0 13.0 0.00 0.39 0.39 78 1005.6